TimeCST,TemperatureF,Dew PointF,Humidity,Sea Level PressureIn,VisibilityMPH,Wind Direction,Wind SpeedMPH,Gust SpeedMPH,PrecipitationIn,Events,Conditions,WindDirDegrees,DateUTC
12:54 AM,51.1,46.9,86,30.32,10.0,Calm,Calm,-,N/A,,Partly Cloudy,0,2013-11-05 06:54:00
1:54 AM,52.0,45.0,77,30.32,10.0,Calm,Calm,-,N/A,,Clear,0,2013-11-05 07:54:00
2:54 AM,50.0,46.0,86,30.31,10.0,Calm,Calm,-,N/A,,Clear,0,2013-11-05 08:54:00
3:54 AM,51.1,44.1,77,30.32,10.0,Calm,Calm,-,N/A,,Clear,0,2013-11-05 09:54:00
4:54 AM,52.0,42.1,69,30.32,10.0,SE,4.6,-,N/A,,Clear,140,2013-11-05 10:54:00
5:54 AM,52.0,42.1,69,30.33,10.0,Calm,Calm,-,N/A,,Clear,0,2013-11-05 11:54:00
6:54 AM,52.0,42.1,69,30.34,10.0,SE,4.6,-,N/A,,Clear,130,2013-11-05 12:54:00
7:54 AM,54.0,41.0,62,30.36,10.0,SSE,4.6,-,N/A,,Clear,160,2013-11-05 13:54:00
8:54 AM,55.9,41.0,57,30.37,10.0,South,3.5,-,N/A,,Overcast,180,2013-11-05 14:54:00
9:54 AM,57.9,42.1,56,30.37,10.0,SSE,9.2,-,N/A,,Partly Cloudy,160,2013-11-05 15:54:00
10:54 AM,60.1,43.0,53,30.35,10.0,South,5.8,-,N/A,,Mostly Cloudy,180,2013-11-05 16:54:00
11:54 AM,61.0,44.1,54,30.31,10.0,SE,9.2,-,N/A,,Clear,130,2013-11-05 17:54:00
12:54 PM,63.0,44.1,50,30.28,10.0,SE,8.1,-,N/A,,Clear,140,2013-11-05 18:54:00
1:54 PM,64.9,45.0,48,30.25,10.0,SE,6.9,-,N/A,,Clear,140,2013-11-05 19:54:00
2:54 PM,63.0,44.1,50,30.24,10.0,SE,9.2,-,N/A,,Mostly Cloudy,130,2013-11-05 20:54:00
3:54 PM,64.0,45.0,50,30.21,10.0,ESE,3.5,-,N/A,,Clear,120,2013-11-05 21:54:00
4:54 PM,63.0,45.0,52,30.21,10.0,Calm,Calm,-,N/A,,Overcast,0,2013-11-05 22:54:00
5:54 PM,63.0,46.0,54,30.21,10.0,SSE,4.6,-,N/A,,Overcast,150,2013-11-05 23:54:00
6:54 PM,63.0,45.0,52,30.19,10.0,SE,5.8,-,N/A,,Overcast,130,2013-11-06 00:54:00
7:54 PM,62.1,45.0,53,30.18,10.0,SE,6.9,-,N/A,,Overcast,140,2013-11-06 01:54:00
8:54 PM,61.0,45.0,56,30.17,10.0,SE,9.2,-,N/A,,Scattered Clouds,140,2013-11-06 02:54:00
9:54 PM,61.0,45.0,56,30.17,10.0,SSE,5.8,-,N/A,,Clear,160,2013-11-06 03:54:00
10:54 PM,61.0,45.0,56,30.17,10.0,South,10.4,-,N/A,,Overcast,190,2013-11-06 04:54:00
11:54 PM,60.1,45.0,57,30.16,10.0,South,12.7,-,N/A,,Overcast,170,2013-11-06 05:54:00